Temp
20 18 16 17 19 20 20 19 19 19 20 19 18 18 20 18 16 16 16 15 15 15 14 14 14 13 13 13 12 12 12 11 11 11 11 11 11 11 10 10 10 10 10 10
17 17 17 19 19 19 18 18 17 18 19 18 18 17 16 15 16 17 16 15 15 15 14 14 14 13 13 13 13 12 12 12 11 12 12 11 11 11 10 10 10 10 10 10
17 19 19 19 19 19 18 18 18 18 19 18 18 16 17 17 16 16 16 17 16 15 15 14 14 13 13 13 13 13 12 12 12 12 12 12 12 11 11 11 10 10 10 10
17 19 19 18 19 18 18 18 18 18 18 16 18 14 16 16 15 14 15 15 16 15 15 15 14 13 13 13 13 13 12 13 12 12 12 13 12 12 11 10 11 11 11 11
19 18 18 18 19 18 18 19 18 18 16 16 17 13 15 15 16 14 13 14 17 16 16 15 14 14 13 13 13 13 12 13 12 12 12 13 13 12 12 12 12 12 12 11
19 20 18 19 19 18 20 19 15 13 13 13 16 14 14 15 16 16 14 14 16 16 15 15 14 14 13 13 13 13 13 13 13 12 13 13 13 12 12 12 13 13 13 12
19 18 19 21 19 19 18 15 14 13 12 13 15 15 15 17 17 16 15 14 16 16 16 15 14 14 14 13 13 13 13 13 13 13 12 12 13 14 13 12 12 12 13 13
17 18 18 20 19 18 16 15 14 15 13 15 15 16 17 17 18 18 18 16 15 16 16 16 15 14 14 14 13 13 13 13 13 13 13 13 13 13 13 13 12 12 13 13
16 17 19 19 20 19 17 16 16 15 15 14 15 16 16 18 16 15 14 14 14 16 16 16 15 14 14 14 14 14 13 13 12 13 13 13 13 13 13 13 12 12 13 13
17 17 18 20 20 20 19 17 17 13 16 16 15 16 15 17 19 14 12 12 14 16 16 16 15 15 14 14 14 14 13 13 12 12 12 12 13 12 12 13 13 13 13 13
16 16 18 18 17 17 17 16 14 14 13 13 12 13 14 18 17 15 13 14 16 17 17 17 16 15 15 14 14 14 14 13 13 12 12 12 13 12 12 12 13 13 13 14
16 15 15 17 17 17 18 16 15 14 15 13 13 15 16 15 15 16 15 15 16 16 18 17 16 15 15 14 14 14 14 14 14 13 13 12 12 12 12 12 12 12 13 13
15 14 14 15 16 17 18 15 15 13 12 13 15 16 16 16 17 16 16 15 15 16 17 17 16 15 15 15 15 15 14 14 14 13 13 13 13 13 12 12 12 12 12 13
19 14 16 17 18 16 17 16 15 15 13 15 14 18 18 18 19 17 16 16 16 16 17 17 17 16 15 15 15 15 15 14 14 13 13 13 13 12 12 12 12 12 12 12
16 15 15 18 18 17 19 17 15 16 16 16 17 16 18 18 18 17 18 15 15 16 16 17 17 16 15 15 15 15 15 15 14 14 13 13 13 12 12 12 12 12 12 12
13 15 15 16 17 17 18 17 16 18 16 17 18 17 16 18 19 18 18 16 15 17 17 17 17 17 16 15 15 15 15 15 14 14 13 13 13 12 12 12 12 12 12 12
14 13 12 14 15 15 16 18 16 17 16 16 17 17 15 15 15 18 18 17 18 17 18 17 18 18 17 16 16 16 16 15 15 14 13 13 13 13 12 12 12 12 12 12
13 12 12 12 14 14 16 16 18 18 17 15 17 16 16 18 21 22 21 21 19 18 19 19 18 19 18 17 16 16 16 16 16 15 14 13 13 13 12 11 12 12 12 12
11 11 11 12 10 14 16 14 15 16 16 16 17 16 17 19 19 21 23 23 22 22 21 21 20 19 19 18 17 16 16 16 16 16 15 14 14 14 13 12 12 12 12 12
10 12 12 8 12 14 14 15 16 17 16 14 17 14 15 17 16 19 23 23 23 22 21 22 20 19 19 19 17 16 16 16 16 16 16 15 15 15 15 14 13 13 13 14
9 9 13 9 10 12 14 14 18 15 16 16 17 17 16 16 19 23 23 23 23 23 22 21 20 20 20 19 18 17 17 17 17 16 16 16 16 16 16 15 15 15 15 15
11 10 10 8 12 14 14 15 16 16 20 20 19 19 19 21 21 22 23 22 23 23 22 21 20 20 19 19 19 17 17 17 17 16 16 16 16 16 16 16 16 15 15 16
14 12 12 12 13 13 15 17 21 22 21 20 20 19 19 21 20 23 23 22 22 22 23 22 23 20 19 19 19 18 18 18 17 16 16 16 16 16 16 16 16 16 16 16
13 11 12 14 14 13 15 17 18 19 21 21 21 21 21 21 22 22 21 21 21 21 23 24 21 20 20 20 20 19 19 18 18 17 16 16 16 16 16 16 16 16 16 16
13 12 11 13 14 13 14 18 20 19 19 20 20 20 20 20 19 20 20 20 21 22 21 23 23 23 22 22 21 19 19 19 18 18 17 16 16 16 16 16 16 16 16 17
11 12 14 14 13 15 17 20 20 19 18 19 19 19 19 19 19 20 20 21 21 21 22 22 21 22 23 23 21 20 20 19 19 18 18 17 17 16 16 16 16 16 16 17
Height
1485 1498 1502 1498 1499 1498 1504 1508 1512 1507 1502 1505 1505 1503 1492 1494 1496 1498 1499 1500 1504 1506 1509 1510 1511 1510 1509 1507 1505 1503 1500 1496 1493 1490 1487 1485 1482 1480 1478 1477 1475 1474 1472 1472
1490 1491 1488 1491 1495 1499 1503 1508 1513 1505 1499 1505 1502 1501 1493 1492 1488 1490 1491 1496 1500 1503 1506 1508 1509 1510 1509 1507 1505 1504 1501 1499 1496 1492 1489 1487 1484 1482 1479 1478 1477 1474 1469 1472
1486 1481 1483 1489 1492 1499 1501 1505 1507 1507 1500 1500 1501 1506 1496 1488 1488 1488 1490 1493 1497 1500 1503 1506 1507 1509 1509 1508 1506 1504 1502 1501 1498 1495 1492 1490 1486 1485 1482 1480 1479 1479 1477 1473
1477 1474 1480 1486 1489 1492 1503 1494 1496 1501 1507 1521 1501 1528 1501 1490 1488 1485 1485 1486 1490 1495 1501 1504 1506 1508 1508 1508 1507 1505 1504 1503 1501 1497 1494 1493 1491 1489 1485 1484 1484 1484 1483 1483
1470 1473 1478 1484 1484 1485 1494 1488 1493 1497 1506 1508 1506 1525 1503 1491 1488 1481 1476 1479 1484 1491 1497 1501 1503 1506 1507 1508 1507 1506 1505 1505 1503 1501 1498 1496 1494 1493 1491 1488 1488 1489 1490 1490
1462 1462 1468 1473 1473 1478 1479 1488 1499 1506 1513 1530 1506 1513 1509 1494 1481 1472 1469 1473 1480 1486 1494 1499 1502 1505 1506 1507 1507 1507 1506 1506 1506 1504 1502 1500 1497 1497 1496 1494 1493 1492 1493 1494
1462 1464 1461 1463 1474 1477 1483 1501 1524 1530 1532 1529 1502 1510 1498 1472 1466 1465 1463 1466 1472 1482 1490 1495 1498 1502 1505 1506 1507 1507 1507 1507 1507 1507 1505 1504 1502 1500 1500 1499 1497 1494 1495 1496
1469 1476 1461 1459 1466 1478 1485 1494 1519 1526 1532 1513 1500 1504 1485 1464 1460 1458 1457 1462 1469 1478 1487 1492 1496 1500 1503 1505 1506 1507 1508 1508 1508 1508 1508 1507 1506 1505 1504 1503 1502 1498 1500 1501
1464 1465 1450 1452 1455 1463 1480 1492 1482 1500 1504 1511 1502 1487 1470 1460 1460 1460 1460 1464 1467 1474 1483 1489 1494 1498 1501 1504 1505 1507 1508 1508 1509 1510 1510 1509 1508 1508 1508 1508 1507 1503 1504 1506
1445 1464 1449 1448 1452 1457 1462 1467 1489 1504 1509 1511 1504 1493 1489 1467 1460 1461 1463 1464 1466 1473 1481 1487 1491 1495 1500 1503 1505 1506 1508 1509 1510 1510 1511 1511 1511 1511 1512 1512 1512 1512 1511 1511
1437 1450 1455 1449 1455 1462 1468 1474 1481 1488 1499 1512 1524 1501 1466 1459 1454 1454 1457 1461 1463 1467 1476 1482 1488 1493 1498 1501 1504 1506 1507 1508 1510 1511 1512 1513 1513 1513 1515 1515 1516 1516 1516 1516
1427 1444 1461 1452 1443 1443 1447 1459 1466 1489 1494 1495 1497 1484 1455 1455 1453 1448 1452 1461 1464 1470 1473 1479 1486 1490 1495 1499 1502 1504 1507 1508 1510 1511 1513 1514 1515 1516 1517 1519 1519 1519 1519 1520
1422 1442 1462 1459 1452 1446 1446 1454 1458 1467 1478 1489 1491 1481 1452 1453 1451 1447 1451 1457 1462 1469 1474 1479 1484 1487 1492 1496 1500 1503 1505 1508 1510 1511 1513 1515 1516 1517 1519 1521 1522 1523 1524 1524
1407 1428 1431 1440 1442 1445 1450 1451 1453 1457 1479 1476 1476 1461 1454 1449 1446 1450 1450 1455 1461 1466 1471 1475 1480 1485 1489 1493 1497 1501 1504 1507 1509 1511 1513 1515 1517 1519 1521 1523 1525 1526 1528 1529
1408 1423 1425 1422 1425 1433 1433 1439 1446 1450 1449 1461 1456 1459 1446 1443 1444 1446 1446 1452 1458 1464 1470 1470 1475 1481 1486 1491 1495 1499 1502 1506 1508 1511 1513 1515 1517 1519 1521 1524 1526 1528 1530 1532
1409 1418 1418 1424 1422 1425 1430 1426 1432 1433 1440 1442 1441 1447 1437 1438 1441 1443 1441 1449 1452 1455 1463 1467 1471 1476 1482 1487 1491 1496 1499 1503 1507 1510 1512 1515 1516 1518 1521 1524 1527 1529 1532 1534
1411 1416 1425 1431 1422 1428 1427 1420 1427 1430 1432 1433 1445 1434 1433 1437 1437 1436 1440 1444 1445 1450 1456 1464 1464 1469 1475 1481 1488 1492 1497 1501 1504 1508 1511 1513 1515 1517 1521 1524 1526 1529 1532 1535
1411 1416 1422 1433 1428 1444 1405 1399 1406 1414 1418 1423 1422 1424 1423 1424 1428 1432 1433 1436 1440 1443 1449 1455 1464 1467 1472 1478 1484 1490 1494 1498 1502 1506 1509 1512 1514 1516 1520 1523 1525 1528 1531 1534
1406 1417 1427 1432 1443 1417 1405 1406 1412 1417 1420 1413 1414 1418 1420 1423 1427 1425 1426 1431 1434 1436 1440 1447 1454 1461 1468 1473 1479 1486 1491 1496 1499 1503 1507 1510 1513 1515 1518 1521 1523 1526 1529 1532
1405 1406 1416 1435 1428 1422 1405 1395 1396 1402 1420 1405 1408 1413 1417 1422 1434 1419 1422 1426 1429 1432 1436 1441 1448 1456 1463 1469 1476 1481 1486 1491 1495 1499 1504 1508 1511 1514 1517 1520 1523 1525 1528 1531
1410 1413 1411 1427 1424 1410 1390 1389 1394 1422 1417 1396 1399 1403 1410 1416 1410 1411 1417 1421 1423 1425 1429 1436 1442 1445 1452 1462 1469 1474 1480 1485 1491 1496 1501 1505 1509 1513 1516 1519 1522 1525 1528 1531
1395 1408 1412 1421 1414 1409 1384 1392 1397 1394 1387 1390 1393 1397 1400 1402 1407 1411 1413 1417 1421 1421 1423 1429 1434 1438 1445 1455 1463 1468 1471 1480 1487 1493 1497 1502 1506 1511 1515 1518 1522 1525 1528 1531
1381 1379 1386 1389 1387 1373 1374 1374 1377 1379 1384 1388 1390 1392 1397 1400 1405 1407 1408 1414 1416 1419 1420 1424 1428 1433 1439 1446 1454 1460 1466 1474 1481 1488 1493 1498 1503 1507 1512 1516 1519 1523 1526 1529
1367 1368 1374 1377 1371 1370 1371 1372 1374 1376 1382 1387 1390 1393 1396 1397 1400 1403 1406 1408 1413 1417 1415 1419 1423 1427 1432 1438 1445 1450 1461 1468 1475 1480 1487 1493 1498 1503 1507 1512 1516 1519 1522 1525
1363 1365 1369 1369 1364 1366 1366 1367 1371 1378 1383 1384 1387 1392 1395 1397 1399 1402 1403 1406 1410 1412 1414 1415 1417 1420 1424 1430 1436 1444 1452 1461 1468 1474 1481 1486 1492 1498 1502 1507 1510 1514 1518 1521
1357 1358 1362 1360 1357 1360 1363 1365 1370 1373 1378 1381 1384 1389 1393 1396 1398 1400 1401 1403 1405 1406 1407 1409 1411 1414 1417 1423 1429 1437 1442 1451 1459 1466 1473 1478 1484 1490 1496 1501 1505 1510 1514 1517
Wind_Speed
7 4 8 9 7 5 4 3 5 4 5 5 7 9 16 11 19 15 24 25 22 17 11 7 3 1 7 9 8 13 13 16 16 11 10 10 8 8 6 5 4 6 3 5
4 12 7 7 4 4 3 3 5 5 3 6 8 10 8 8 13 27 29 29 25 20 15 10 6 1 4 9 5 10 10 13 17 12 10 12 13 10 7 9 11 10 13 12
9 4 8 7 5 4 5 3 5 7 2 3 1 6 5 5 7 13 21 27 28 24 18 13 9 3 1 8 6 8 9 12 14 12 9 13 14 12 9 12 12 12 13 17
7 6 8 5 5 8 4 8 6 4 2 5 4 5 6 6 6 7 19 29 30 27 19 14 11 7 2 6 7 6 10 11 10 13 11 14 15 19 15 14 18 19 19 20
10 8 6 5 10 7 10 3 5 3 4 2 2 2 6 2 6 10 17 30 33 29 23 18 13 8 4 6 6 4 8 9 8 12 14 18 15 16 15 14 9 11 14 14
10 9 10 12 8 9 3 3 6 4 4 1 7 7 5 5 8 7 5 27 35 32 25 17 12 10 7 6 4 2 6 7 6 8 12 14 16 15 15 15 12 4 6 12
4 5 4 6 5 3 5 6 4 4 3 6 3 3 8 8 10 9 9 26 36 34 28 22 19 15 11 7 5 1 2 4 4 5 8 12 12 13 13 12 12 7 10 13
10 9 10 4 8 10 7 9 5 6 3 5 3 5 6 7 8 14 13 20 34 35 30 24 19 16 13 9 7 6 2 2 3 4 7 10 9 9 13 14 14 14 17 18
8 8 3 7 5 11 5 4 6 4 1 2 3 7 10 4 4 4 11 21 32 37 32 26 21 18 15 12 7 5 5 2 2 2 3 6 6 6 8 12 13 19 19 15
6 2 5 7 5 1 9 6 2 2 2 4 4 4 6 9 5 5 7 18 31 36 32 26 22 20 17 14 9 7 6 3 4 2 1 4 4 5 6 7 10 14 15 15
6 6 4 6 7 9 3 3 4 4 4 5 3 6 6 6 9 8 10 24 33 39 35 28 23 19 18 15 13 9 7 5 4 5 2 1 3 5 6 6 8 9 10 11
8 7 6 8 3 5 7 10 9 5 5 3 4 8 6 7 9 8 11 21 29 36 33 27 24 21 20 18 15 10 9 6 4 4 4 3 3 4 8 8 8 7 10 11
8 3 3 5 3 1 4 5 5 5 4 7 5 6 3 4 3 3 9 17 25 32 32 28 26 25 23 20 17 11 9 9 6 4 4 4 5 5 8 9 8 10 11 12
20 6 11 15 5 6 5 5 6 7 5 5 6 5 5 2 4 2 6 14 22 33 35 31 28 28 25 21 19 14 10 12 9 6 4 3 5 8 9 12 10 10 10 11
7 8 6 5 10 11 13 8 12 9 8 8 8 9 7 4 4 8 10 16 23 30 36 36 31 30 29 24 21 16 11 11 11 8 5 2 4 11 12 12 11 11 10 9
0 4 8 7 9 13 11 16 15 17 3 2 6 5 7 6 6 5 12 21 27 31 40 40 35 30 30 29 23 19 15 12 12 10 8 5 5 10 15 13 13 11 11 10
1 4 4 5 5 7 16 15 13 8 5 9 7 9 7 5 8 13 13 20 26 30 34 43 40 34 31 31 26 23 17 14 13 12 11 9 6 10 14 15 14 13 11 11
2 4 2 3 6 8 5 8 16 19 11 7 4 9 11 12 20 18 8 10 22 27 28 40 43 37 32 30 28 23 20 16 14 13 13 12 9 11 13 14 15 15 14 12
8 5 2 5 4 4 1 5 8 8 11 14 10 5 10 11 6 14 14 15 19 26 24 29 42 41 35 32 30 28 25 20 17 15 15 13 11 12 12 13 14 14 14 14
5 3 5 3 7 10 6 6 7 5 6 10 16 9 9 13 4 9 21 20 22 22 29 23 32 43 39 34 33 31 29 26 23 18 16 14 13 12 12 12 12 12 12 12
4 2 12 2 4 6 5 8 15 8 7 12 28 26 19 7 21 28 21 21 17 19 25 26 26 33 40 39 37 36 33 32 27 21 18 17 16 14 13 13 13 13 13 13
8 7 5 2 3 8 7 7 12 8 10 12 27 27 32 37 31 28 21 17 14 15 19 23 23 28 34 41 40 41 39 31 31 27 23 20 19 17 17 17 16 15 15 14
10 7 7 9 6 4 27 19 30 20 16 15 24 27 31 31 31 24 25 24 21 16 16 17 18 23 29 34 43 45 39 34 33 33 29 26 23 21 20 21 21 20 19 18
3 3 5 4 6 6 26 14 24 15 16 15 11 14 19 22 24 25 26 22 20 16 13 15 22 25 29 31 39 47 41 38 35 36 34 31 29 27 25 24 25 24 24 23
7 8 7 2 2 2 11 30 22 27 15 15 14 11 15 20 19 19 17 17 19 16 16 17 20 22 26 29 34 43 47 42 42 37 38 36 35 32 29 28 28 29 27 25
4 6 8 8 11 11 16 33 32 25 31 24 14 14 20 19 15 14 15 18 17 13 12 16 23 25 24 27 36 40 44 47 47 43 41 42 40 39 36 33 31 30 28 26
Wind_Direction
168 143 206 203 203 190 199 203 249 268 243 182 237 252 274 220 211 204 205 200 202 205 202 197 193 27 34 27 23 15 20 22 17 14 23 41 31 19 347 12 23 352 263 195
84 221 187 201 175 181 166 230 268 275 278 162 272 272 265 187 224 213 209 203 204 197 196 198 196 194 39 35 38 18 22 19 22 24 33 42 26 32 27 54 66 58 74 138
187 184 166 171 200 175 203 175 233 241 315 240 174 307 299 265 244 220 224 214 209 203 199 197 197 195 93 45 51 33 36 19 25 28 45 54 33 47 58 71 80 72 95 84
209 197 174 169 196 168 253 217 230 268 39 272 135 271 284 279 274 226 213 209 208 201 201 201 195 196 160 64 56 53 36 20 35 36 48 74 47 57 72 88 79 82 78 78
213 158 177 173 213 165 232 141 196 228 209 108 271 71 262 351 282 256 216 209 206 202 198 198 195 190 153 101 64 76 33 31 55 54 54 60 64 61 62 76 81 74 77 78
203 207 167 198 214 175 170 107 49 56 96 57 235 161 278 216 215 256 188 205 206 197 195 198 185 187 162 161 90 66 31 26 54 60 55 55 53 60 76 82 101 98 101 87
170 187 195 151 151 88 94 71 339 338 8 225 106 99 234 253 242 229 224 197 202 194 192 192 188 191 184 178 168 180 0 15 46 61 65 60 57 56 68 74 67 105 105 134
184 226 170 178 169 183 180 155 157 230 228 260 136 232 250 228 291 285 268 217 195 188 192 194 192 191 189 180 170 219 260 16 45 61 66 59 70 65 68 66 74 92 126 113
174 227 136 165 155 147 178 153 197 136 161 60 244 288 312 255 355 29 139 174 185 187 192 195 191 193 193 187 167 213 235 315 190 47 29 43 77 91 78 78 72 79 118 118
196 175 206 198 103 30 168 161 111 17 197 231 280 286 240 291 288 167 163 178 185 187 192 195 192 195 195 193 193 225 238 276 217 235 25 39 93 132 108 96 94 94 90 99
135 136 268 106 177 167 124 163 58 124 149 187 236 258 220 239 245 223 194 195 191 187 191 195 192 193 198 200 205 225 236 248 214 220 229 51 111 141 140 121 114 105 114 117
184 152 193 200 195 174 206 187 168 161 231 213 183 263 247 264 278 213 184 209 198 196 190 194 192 189 197 201 198 209 218 224 199 191 199 212 172 142 163 143 131 112 109 107
169 196 158 324 6 313 172 179 150 120 95 190 181 263 186 266 277 247 193 199 200 196 195 194 193 194 198 199 197 196 210 205 201 186 179 191 188 165 165 161 144 141 128 138
163 159 191 221 203 160 186 181 184 155 137 184 216 209 266 183 47 266 180 209 204 200 198 195 196 200 201 201 202 198 200 205 204 203 203 192 190 179 171 177 167 152 150 139
144 205 182 192 196 191 211 193 181 190 191 169 214 205 229 178 183 194 185 189 190 200 206 201 199 204 203 203 203 202 197 204 211 210 217 216 200 188 182 177 175 167 154 148
33 216 176 214 200 193 214 216 194 207 124 94 147 226 202 175 175 196 172 192 196 201 210 208 205 204 205 206 205 202 198 201 211 210 210 215 210 189 186 184 182 178 178 170
317 138 106 220 185 132 244 208 190 198 187 161 187 212 155 176 205 227 226 209 215 211 210 215 207 207 206 204 203 203 198 200 208 204 207 216 208 188 185 192 195 195 194 192
205 112 101 156 114 207 270 210 185 198 200 192 165 174 179 198 217 237 223 266 232 223 213 218 218 211 211 207 203 203 200 201 203 202 206 212 208 191 187 189 193 199 204 207
181 134 149 148 209 292 232 148 144 158 226 198 198 158 192 201 215 249 231 267 278 247 233 227 221 217 211 207 201 202 201 202 202 203 202 209 213 199 192 189 192 195 199 202
137 190 156 168 176 217 201 202 150 79 249 199 195 187 168 145 183 230 225 248 278 251 240 229 224 222 214 211 205 201 203 203 202 201 200 202 209 208 196 185 182 179 177 175
144 115 206 166 217 275 249 146 138 147 232 185 192 202 176 184 218 228 245 260 272 259 244 232 224 222 220 210 207 205 204 206 206 196 198 202 204 204 197 187 181 175 173 174
161 150 186 117 170 240 168 128 158 199 221 219 204 206 201 216 226 229 237 242 256 243 222 224 222 223 220 212 209 209 207 207 207 202 201 203 203 202 198 195 187 185 186 185
193 183 185 189 203 223 171 173 198 187 198 199 208 208 215 219 226 223 241 241 246 227 208 216 225 220 218 211 211 211 210 206 206 207 204 208 205 204 202 202 197 197 197 196
231 151 147 129 209 197 192 198 202 188 191 214 224 212 214 224 233 237 241 244 223 220 196 221 218 217 218 215 212 217 212 207 208 208 206 208 211 209 207 208 207 206 206 207
200 149 172 221 331 96 215 202 203 209 201 191 187 214 235 224 229 233 242 231 225 228 221 217 222 223 223 224 219 215 217 211 209 211 209 208 212 214 212 214 215 215 216 219
209 175 182 217 174 168 200 201 208 211 217 217 232 219 215 221 232 238 244 241 236 225 236 236 226 224 223 226 223 218 218 215 212 211 213 213 211 214 218 216 220 225 230 233